Regional Weather Roundup
Issued by NWS

Home | Current Version | Previous Version | Text Only | Print | Product List | Glossary Off
Versions: 1 2 3 4 5 6 7 8 9 10 11 12 13 14 15 16 17 18 19 20 21 22 23 24 25 26 27 28 29 30 31 32 33 34 35 36 37 38 39 40 41 42 43 44 45 46 47 48 49 50

000
ASUS43 KBIS 270502
RWRND

NORTH DAKOTA REGIONAL WEATHER ROUNDUP
NATIONAL WEATHER SERVICE BISMARCK ND
1200 AM CDT THU APR 27 2017

NOTE: "FAIR" INDICATES FEW OR NO CLOUDS BELOW 12,000 FEET WITH NO
SIGNIFICANT WEATHER AND/OR OBSTRUCTIONS TO VISIBILITY.


NDZ001>003-009>011-017-270600-
NORTHWEST NORTH DAKOTA

CITY           SKY/WX    TMP DP  RH WIND       PRES   REMARKS
WILLISTON      FAIR      36  21  54 NE8       29.77F
MINOT          FAIR      30  25  81 E3        29.79S
MINOT AFB      CLEAR     31  25  77 E6        29.79S
$$

NDZ018>021-031>035-040>046-270600-
SOUTHWEST NORTH DAKOTA

CITY           SKY/WX    TMP DP  RH WIND       PRES   REMARKS
BISMARCK       CLOUDY    36  29  75 NE5       29.78S
DICKINSON      FAIR      28  20  71 E8        29.72S WCI  20
GARRISON         N/A     31  26  82 E6        29.77S
HETTINGER ARPT CLEAR     31  24  75 E10       29.74R
$$

NDZ004>008-012>016-024-026-027-054-270600-
NORTHEAST NORTH DAKOTA

CITY           SKY/WX    TMP DP  RH WIND       PRES   REMARKS
GRAND FORKS    LGT SNOW  31  29  92 N16       29.76F FOG     WCI  20
GRND FRKS AFB  MIX PCPN  29  28  95 NE17      29.77S FOG     WCI  18
DEVILS LAKE    CLOUDY    32  26  78 NE5       29.77F
$$

NDZ022-023-025-028>030-036>039-047>053-270600-
SOUTHEAST NORTH DAKOTA

CITY           SKY/WX    TMP DP  RH WIND       PRES   REMARKS
FARGO          LGT SNOW  29  27  92 N16       29.70F FOG     WCI  17
JAMESTOWN      CLOUDY    30  25  81 N16G22    29.73F WCI  19
$$





USA.gov is the U.S. government's official web portal to all federal, state and local government web resources and services.